When you browse on this site, cookies collect data to enhance your experience and personalize the content and advertising you see.
Visit our Privacy Policy to learn more. By continuing to use the site, you agree to this use of cookies and data.
  • In Latvia
  • List of Countries
  • For 7 days
  • Water Temperature
  • Weather Map
  • Weather Widgets
  • user-avatar
    Login

    Hourly Weather Piaski

    Today, 21 February, Friday

    Time Temperature Precipitation Wind Pressure Humidity
    00:00 +1°C° 0 mm 2 mps 749 mmHg 85%
    01:00 +1°C° 0 mm 2 mps 749 mmHg 86%
    02:00 +1°C° 0 mm 2 mps 749 mmHg 88%
    03:00 +1°C° 0 mm 2 mps 748 mmHg 85%
    04:00 0°C° 0 mm 3 mps 748 mmHg 83%
    05:00 0°C° 0 mm 3 mps 747 mmHg 80%
    06:00 0°C° 0 mm 3 mps 747 mmHg 78%
    07:00 -1°C° 0 mm 4 mps 746 mmHg 76%
    08:00 -1°C° 0 mm 4 mps 746 mmHg 73%
    15:00 0°C° 0.8 mm 7 mps 745 mmHg 91%
    16:00 0°C° 0.8 mm 7 mps 746 mmHg 93%
    17:00 -1°C° 0.8 mm 7 mps 746 mmHg 96%
    18:00 -1°C° 0.6 mm 7 mps 747 mmHg 95%
    19:00 0°C° 0.6 mm 7 mps 748 mmHg 93%
    20:00 0°C° 0.6 mm 7 mps 748 mmHg 92%
    21:00 +1°C° 0 mm 6 mps 749 mmHg 89%
    22:00 0°C° 0 mm 5 mps 749 mmHg 85%
    23:00 0°C° 0 mm 4 mps 750 mmHg 82%

    Tomorrow, 22 February, Saturday

    Time Temperature Precipitation Wind Pressure Humidity
    00:00 0°C° 0 mm 4 mps 750 mmHg 85%
    01:00 -1°C° 0 mm 4 mps 751 mmHg 87%
    02:00 -1°C° 0 mm 4 mps 752 mmHg 90%
    03:00 0°C° 0 mm 3 mps 752 mmHg 91%
    04:00 -1°C° 0 mm 3 mps 752 mmHg 93%
    05:00 -1°C° 0 mm 3 mps 752 mmHg 95%
    06:00 -1°C° 0 mm 3 mps 752 mmHg 94%
    07:00 -1°C° 0 mm 2 mps 753 mmHg 94%
    08:00 -1°C° 0 mm 2 mps 753 mmHg 94%
    09:00 +1°C° 0 mm 3 mps 753 mmHg 88%
    10:00 +2°C° 0 mm 3 mps 752 mmHg 81%
    11:00 +3°C° 0 mm 4 mps 752 mmHg 75%
    12:00 +4°C° 0 mm 4 mps 752 mmHg 69%
    13:00 +5°C° 0 mm 5 mps 751 mmHg 63%
    14:00 +5°C° 0 mm 6 mps 751 mmHg 58%
    15:00 +5°C° 0 mm 6 mps 750 mmHg 59%
    16:00 +4°C° 0 mm 7 mps 749 mmHg 61%
    17:00 +4°C° 0 mm 7 mps 748 mmHg 63%
    18:00 +3°C° 0 mm 7 mps 748 mmHg 65%
    19:00 +2°C° 0 mm 8 mps 748 mmHg 67%
    20:00 +2°C° 0 mm 8 mps 747 mmHg 68%
    21:00 +2°C° 0 mm 8 mps 747 mmHg 67%
    22:00 +2°C° 0 mm 8 mps 747 mmHg 67%
    23:00 +2°C° 0 mm 8 mps 746 mmHg 66%

    Day after tomorrow, 23 February, Sunday

    Time Temperature Precipitation Wind Pressure Humidity
    00:00 +4°C° 0 mm 8 mps 746 mmHg 66%
    01:00 +4°C° 0 mm 8 mps 746 mmHg 67%
    02:00 +4°C° 0 mm 8 mps 746 mmHg 67%
    03:00 +4°C° 0.1 mm 8 mps 745 mmHg 71%
    04:00 +2°C° 0.1 mm 8 mps 745 mmHg 75%
    05:00 +2°C° 0.1 mm 8 mps 744 mmHg 78%
    06:00 +2°C° 1 mm 8 mps 745 mmHg 83%
    07:00 +3°C° 1 mm 7 mps 745 mmHg 87%
    08:00 +2°C° 1 mm 7 mps 745 mmHg 92%
    09:00 +3°C° 0.8 mm 7 mps 745 mmHg 86%
    10:00 +3°C° 0.8 mm 7 mps 745 mmHg 79%
    11:00 +3°C° 0.8 mm 7 mps 745 mmHg 73%
    12:00 +3°C° 0.1 mm 7 mps 745 mmHg 74%
    13:00 +3°C° 0.1 mm 7 mps 745 mmHg 76%
    14:00 +4°C° 0.1 mm 7 mps 745 mmHg 77%
    15:00 +3°C° 0.2 mm 6 mps 744 mmHg 80%
    16:00 +3°C° 0.2 mm 6 mps 743 mmHg 83%
    17:00 +3°C° 0.2 mm 6 mps 742 mmHg 86%
    18:00 +3°C° 0.3 mm 6 mps 741 mmHg 88%
    19:00 +3°C° 0.3 mm 6 mps 740 mmHg 89%
    20:00 +3°C° 0.3 mm 6 mps 739 mmHg 91%
    21:00 +4°C° 1.5 mm 7 mps 736 mmHg 88%
    22:00 +5°C° 1.5 mm 9 mps 734 mmHg 86%
    23:00 +6°C° 1.5 mm 10 mps 732 mmHg 84%

    24 February, Monday

    Time Temperature Precipitation Wind Pressure Humidity
    00:00 +6°C° 1.8 mm 11 mps 730 mmHg 82%
    01:00 +7°C° 1.8 mm 13 mps 729 mmHg 79%
    02:00 +6°C° 1.8 mm 14 mps 728 mmHg 77%
    03:00 +4°C° 0.2 mm 14 mps 729 mmHg 78%
    04:00 +1°C° 0.2 mm 15 mps 731 mmHg 79%
    05:00 0°C° 0.2 mm 15 mps 732 mmHg 81%
    06:00 -1°C° 0.2 mm 14 mps 735 mmHg 81%
    07:00 -1°C° 0.2 mm 12 mps 737 mmHg 82%
    08:00 -2°C° 0.2 mm 11 mps 739 mmHg 83%
    09:00 -1°C° 0.1 mm 11 mps 740 mmHg 80%
    10:00 -1°C° 0.1 mm 11 mps 741 mmHg 77%
    11:00 -1°C° 0.1 mm 11 mps 743 mmHg 75%
    12:00 +1°C° 0.1 mm 10 mps 743 mmHg 74%
    13:00 +1°C° 0.1 mm 10 mps 744 mmHg 73%
    14:00 +1°C° 0.1 mm 9 mps 745 mmHg 73%
    15:00 +2°C° 0.1 mm 8 mps 746 mmHg 71%
    16:00 +2°C° 0.1 mm 8 mps 746 mmHg 70%
    17:00 +3°C° 0.1 mm 7 mps 747 mmHg 69%
    18:00 +2°C° 0 mm 6 mps 747 mmHg 72%
    19:00 +2°C° 0 mm 5 mps 748 mmHg 75%
    20:00 +1°C° 0 mm 4 mps 749 mmHg 79%
    21:00 +1°C° 0 mm 4 mps 749 mmHg 80%
    22:00 +1°C° 0 mm 3 mps 749 mmHg 81%
    23:00 +1°C° 0 mm 3 mps 749 mmHg 82%

    25 February, Tuesday

    Time Temperature Precipitation Wind Pressure Humidity
    00:00 +1°C° 0 mm 3 mps 748 mmHg 83%
    01:00 0°C° 0 mm 3 mps 748 mmHg 83%
    02:00 0°C° 0 mm 3 mps 747 mmHg 84%
    03:00 0°C° 0 mm 3 mps 746 mmHg 81%
    04:00 -1°C° 0 mm 4 mps 745 mmHg 77%
    05:00 -1°C° 0 mm 5 mps 745 mmHg 74%
    06:00 -1°C° 0 mm 6 mps 744 mmHg 72%
    07:00 0°C° 0 mm 7 mps 744 mmHg 70%
    08:00 0°C° 0 mm 7 mps 743 mmHg 68%
    09:00 +1°C° 0 mm 8 mps 742 mmHg 68%
    10:00 +2°C° 0 mm 8 mps 742 mmHg 67%
    11:00 +4°C° 0 mm 8 mps 742 mmHg 67%
    12:00 +4°C° 0 mm 8 mps 741 mmHg 66%
    13:00 +5°C° 0 mm 8 mps 741 mmHg 65%
    14:00 +5°C° 0 mm 8 mps 741 mmHg 64%
    15:00 +5°C° 0 mm 7 mps 740 mmHg 64%
    16:00 +5°C° 0 mm 7 mps 740 mmHg 64%
    17:00 +5°C° 0 mm 7 mps 739 mmHg 64%
    18:00 +4°C° 0 mm 7 mps 739 mmHg 65%
    19:00 +4°C° 0 mm 7 mps 739 mmHg 66%
    20:00 +3°C° 0 mm 6 mps 739 mmHg 67%
    21:00 +3°C° 0 mm 6 mps 738 mmHg 67%
    22:00 +3°C° 0 mm 6 mps 738 mmHg 67%
    23:00 +3°C° 0 mm 6 mps 738 mmHg 66%

    26 February, Wednesday

    Time Temperature Precipitation Wind Pressure Humidity
    00:00 +3°C° 0 mm 6 mps 737 mmHg 66%
    01:00 +3°C° 0 mm 6 mps 737 mmHg 66%
    02:00 +3°C° 0 mm 6 mps 736 mmHg 65%
    03:00 +3°C° 0 mm 6 mps 736 mmHg 67%
    04:00 +3°C° 0 mm 6 mps 735 mmHg 69%
    05:00 +5°C° 0 mm 5 mps 734 mmHg 71%
    06:00 +3°C° 0 mm 6 mps 734 mmHg 73%
    07:00 +3°C° 0 mm 6 mps 734 mmHg 76%
    08:00 +3°C° 0 mm 6 mps 733 mmHg 79%
    09:00 +4°C° 0 mm 6 mps 733 mmHg 75%
    10:00 +5°C° 0 mm 7 mps 734 mmHg 72%
    11:00 +6°C° 0 mm 7 mps 734 mmHg 68%
    12:00 +6°C° 0.1 mm 7 mps 734 mmHg 66%
    13:00 +7°C° 0.1 mm 6 mps 734 mmHg 65%
    14:00 +7°C° 0.1 mm 6 mps 733 mmHg 63%
    15:00 +7°C° 0.1 mm 6 mps 733 mmHg 62%
    16:00 +7°C° 0.1 mm 6 mps 733 mmHg 62%
    17:00 +7°C° 0.1 mm 5 mps 733 mmHg 61%
    18:00 +6°C° 0.1 mm 5 mps 734 mmHg 59%
    19:00 +5°C° 0.1 mm 5 mps 734 mmHg 57%
    20:00 +3°C° 0.1 mm 5 mps 734 mmHg 55%
    21:00 +2°C° 0 mm 5 mps 734 mmHg 55%
    22:00 +3°C° 0 mm 4 mps 735 mmHg 56%
    23:00 +1°C° 0 mm 4 mps 735 mmHg 56%
    Show more